(247820) = 2003 SC156

Discovered at Anderson Mesa on 2003-09-19 by LONEOS.

Orbit

Orbit type: Main Belt

Note: WebGL enabled browser required.

epoch2023-09-13.0
epoch JD2460200.5
perihelion date2023-06-21.82164
perihelion JD2460117.32164
argument of perihelion (°)165.08890
ascending node (°)189.09420
inclination (°)5.72010
eccentricity0.0850775
perihelion distance (AU)2.6707215
Tisserand w.r.t. Jupiter3.3
ΔV w.r.t. Earth (km/sec)10.4
semimajor axis (AU)2.9190685
mean anomaly (°)16.43796
mean daily motion (°/day)0.19762300
aphelion distance (AU)3.167
period (years)4.99
P-vector [x]0.99464834
P-vector [y]-0.10202750
P-vector [z]-0.01628089
Q-vector [x]0.10211026
Q-vector [y]0.94670964
Q-vector [z]0.30547399
absolute magnitude15.81
phase slope0.15
uncertainty0
referenceMPEC 2024-A158
observations used560
oppositions14
arc length (days)9243
first opposition used1998
last opposition used2024
residual rms (arc-secs)0.67
perturbers coarse indicatorM-v
perturbers precise indicator003Ek
first observation date used1998-09-23.0
last observation date used2024-01-13.0
computer nameMPCLINUX
JD of orbit computation2456670.680655
perihelion JD uncertainty (days)3.1692E-04
argument of perihelion uncertainty (°)7.3009E-05
ascending node uncertainty (°)4.0124E-05
inclination uncertainty (°)2.0664E-05
eccentricity uncertainty 2.3287E-07
perihelion distance uncertainty (AU)6.7440E-07
Minimum Orbit Intersection Distances (in AU)
for orbit epoch: 2460200.5, reference: E2024-AF8
Mercury2.29461
Venus1.94728
Earth1.66569
Mars1.27532
Jupiter2.22977
Saturn6.08496
Uranus15.2859
Neptune27.0952

Observations

566 total observations over interval: 1998 09 23.44993 – 2024 01 13.109360
These data are available for download (format description).

Date (UT) J2000 RA J2000 Dec Magn Location Ref
1998 09 23.44993 01 01 15.42 +06 21 09.3 19.6 V 691 – Steward Observatory, Kitt Peak-Spacewatch MPS 178415
1998 09 23.47137 01 01 14.54 +06 21 00.8 19.7 V 691 – Steward Observatory, Kitt Peak-Spacewatch MPS 178415
1998 09 23.49680 01 01 13.35 +06 20 51.9 18.9 V 691 – Steward Observatory, Kitt Peak-Spacewatch MPS 178415
2001 03 27.27352 12 19 51.88 -02 42 28.8 20.7 V 691 – Steward Observatory, Kitt Peak-Spacewatch MPS 178415
2001 03 27.29438 12 19 50.90 -02 42 20.5 21.0 V 691 – Steward Observatory, Kitt Peak-Spacewatch MPS 178415
2001 03 27.31518 12 19 49.94 -02 42 12.2 21.2 V 691 – Steward Observatory, Kitt Peak-Spacewatch MPS 178415
2003 09 17.29495 01 15 16.62 +07 44 54.4 19.3   644 – Palomar Mountain/NEAT MPS 87056
2003 09 17.32073 01 15 15.76 +07 44 45.6 19.2   644 – Palomar Mountain/NEAT MPS 87056
2003 09 17.36536 01 15 14.24 +07 44 30.7 19.2   644 – Palomar Mountain/NEAT MPS 87056
2003 09 19.38836 01 14 07.10 +07 32 57.1 19.2 R 699 – Lowell Observatory-LONEOS MPS 85518
2003 09 19.40160 01 14 06.53 +07 32 53.1   699 – Lowell Observatory-LONEOS MPS 85518
2003 09 19.41495 01 14 06.11 +07 32 48.7   699 – Lowell Observatory-LONEOS MPS 85518
2003 09 19.42815 01 14 05.69 +07 32 44.0   699 – Lowell Observatory-LONEOS MPS 85518
2003 09 20.31314 01 13 35.12 +07 27 32.6 19.6   704 – Lincoln Laboratory ETS, New Mexico MPS 85518
2003 09 20.32588 01 13 34.67 +07 27 27.4 20.0   704 – Lincoln Laboratory ETS, New Mexico MPS 85518
2003 09 20.33823 01 13 34.21 +07 27 23.4 19.8   704 – Lincoln Laboratory ETS, New Mexico MPS 85518
2003 09 20.35094 01 13 33.81 +07 27 18.9 19.2   704 – Lincoln Laboratory ETS, New Mexico MPS 85518
2003 09 21.44723 01 12 54.47 +07 20 43.9 19.5   644 – Palomar Mountain/NEAT MPS 87056
2003 09 21.47365 01 12 53.46 +07 20 33.9 20.0   644 – Palomar Mountain/NEAT MPS 87056
2003 09 21.49524 01 12 52.65 +07 20 26.4 19.4   644 – Palomar Mountain/NEAT MPS 87056
2003 09 29.23498 01 07 47.66 +06 30 39.2 19.1   704 – Lincoln Laboratory ETS, New Mexico MPS 87056
2003 09 29.24772 01 07 47.12 +06 30 35.5 19.0   704 – Lincoln Laboratory ETS, New Mexico MPS 87056
2003 09 29.26063 01 07 46.51 +06 30 30.4 19.6   704 – Lincoln Laboratory ETS, New Mexico MPS 87056
2003 09 29.27317 01 07 45.97 +06 30 24.5 19.3   704 – Lincoln Laboratory ETS, New Mexico MPS 87056
2003 09 29.28566 01 07 45.39 +06 30 20.3 20.0   704 – Lincoln Laboratory ETS, New Mexico MPS 87056
2003 10 15.23089 00 56 02.28 +04 39 56.1 19.0 R 699 – Lowell Observatory-LONEOS MPS 88207
2003 10 15.25079 00 56 01.33 +04 39 47.4   699 – Lowell Observatory-LONEOS MPS 88207
2003 10 15.27071 00 56 00.35 +04 39 37.8   699 – Lowell Observatory-LONEOS MPS 88207
2003 10 15.29058 00 55 59.55 +04 39 31.5   699 – Lowell Observatory-LONEOS MPS 88207
2003 10 19.18402 00 53 12.81 +04 13 26.8 19.6 V 691 – Steward Observatory, Kitt Peak-Spacewatch MPS 88207
2003 10 19.21232 00 53 11.58 +04 13 15.8 19.6 V 691 – Steward Observatory, Kitt Peak-Spacewatch MPS 88207
2003 10 19.24085 00 53 10.33 +04 13 04.5 19.6 V 691 – Steward Observatory, Kitt Peak-Spacewatch MPS 88207
2003 10 20.27162 00 52 27.35 +04 06 21.4 19.2   704 – Lincoln Laboratory ETS, New Mexico MPS 88207
2003 10 20.28342 00 52 26.89 +04 06 16.5 19.1   704 – Lincoln Laboratory ETS, New Mexico MPS 88207
2003 10 20.29501 00 52 26.41 +04 06 11.9 19.5   704 – Lincoln Laboratory ETS, New Mexico MPS 88207
2003 10 20.30669 00 52 25.88 +04 06 08.6 19.4   704 – Lincoln Laboratory ETS, New Mexico MPS 88207
2003 10 23.21406 00 50 29.04 +03 47 41.4 19.5   704 – Lincoln Laboratory ETS, New Mexico MPS 88207
2003 10 23.22633 00 50 28.47 +03 47 38.3 19.7   704 – Lincoln Laboratory ETS, New Mexico MPS 88207
2003 10 23.23874 00 50 27.99 +03 47 33.0 19.8   704 – Lincoln Laboratory ETS, New Mexico MPS 88207
2003 10 23.25120 00 50 27.51 +03 47 28.2 20.1   704 – Lincoln Laboratory ETS, New Mexico MPS 88207
2003 10 23.26311 00 50 27.00 +03 47 23.6 20.0   704 – Lincoln Laboratory ETS, New Mexico MPS 88207
2003 10 29.20678 00 46 49.51 +03 12 38.8 19.4 R 699 – Lowell Observatory-LONEOS MPS 90525
2003 10 29.22679 00 46 48.76 +03 12 32.1   699 – Lowell Observatory-LONEOS MPS 90525
2003 10 29.24672 00 46 48.08 +03 12 24.9   699 – Lowell Observatory-LONEOS MPS 90525
2003 10 29.26664 00 46 47.36 +03 12 20.5   699 – Lowell Observatory-LONEOS MPS 90525
2006 02 25.36220 12 44 39.40 -05 54 39.2 20.6 V G96 – Mt. Lemmon Survey MPS 167048
2006 02 25.36793 12 44 39.26 -05 54 38.0 20.6 V G96 – Mt. Lemmon Survey MPS 167048
2006 02 25.37380 12 44 39.08 -05 54 35.8 20.3 V G96 – Mt. Lemmon Survey MPS 167048
2006 02 25.37950 12 44 38.97 -05 54 35.4 20.3 V G96 – Mt. Lemmon Survey MPS 167048
2006 02 25.39634 12 44 38.52 -05 54 31.1 20.7 V 691 – Steward Observatory, Kitt Peak-Spacewatch MPS 167048
2006 02 25.41374 12 44 38.08 -05 54 27.0 20.6 V 691 – Steward Observatory, Kitt Peak-Spacewatch MPS 167048
2006 02 25.43114 12 44 37.63 -05 54 23.1 20.8 V 691 – Steward Observatory, Kitt Peak-Spacewatch MPS 167048
2006 03 25.33507 12 27 25.12 -03 24 31.8 20.2 V G96 – Mt. Lemmon Survey MPS 167048
2006 03 25.34127 12 27 24.80 -03 24 29.3 19.9 V G96 – Mt. Lemmon Survey MPS 167048
2006 03 25.34720 12 27 24.55 -03 24 27.1 20.2 V G96 – Mt. Lemmon Survey MPS 167048
2006 03 25.35289 12 27 24.30 -03 24 25.0 20.1 V G96 – Mt. Lemmon Survey MPS 167048
2006 04 07.36360 12 17 52.00 -02 01 55.3 20.7 V G96 – Mt. Lemmon Survey MPS 168241
2006 04 07.36507 12 17 51.93 -02 01 54.5 20.1 V G96 – Mt. Lemmon Survey MPS 168241
2006 04 07.36661 12 17 51.86 -02 01 53.7 20.9 V G96 – Mt. Lemmon Survey MPS 168241
2006 04 07.36814 12 17 51.79 -02 01 53.2 20.6 V G96 – Mt. Lemmon Survey MPS 168241
2006 04 19.22013 12 10 15.60 -00 53 53.1 20.0 V G96 – Mt. Lemmon Survey MPS 169156
2006 04 19.23123 12 10 15.16 -00 53 49.9 20.3 V G96 – Mt. Lemmon Survey MPS 169156
2006 04 19.24255 12 10 14.77 -00 53 46.2 20.2 V G96 – Mt. Lemmon Survey MPS 169156
2006 04 19.25370 12 10 14.37 -00 53 42.5 20.2 V G96 – Mt. Lemmon Survey MPS 169156
2006 04 25.13295 12 07 10.83 -00 24 58.8   691 – Steward Observatory, Kitt Peak-Spacewatch MPS 169893
2006 04 25.15368 12 07 10.20 -00 24 53.5   691 – Steward Observatory, Kitt Peak-Spacewatch MPS 169893
2006 04 25.17443 12 07 09.57 -00 24 47.7   691 – Steward Observatory, Kitt Peak-Spacewatch MPS 169893
2008 09 20.35058 01 19 16.96 +07 48 23.8 19.3 V G96 – Mt. Lemmon Survey MPS 256626
2008 09 20.35914 01 19 16.64 +07 48 20.8 19.3 V G96 – Mt. Lemmon Survey MPS 256626
2008 09 20.36786 01 19 16.32 +07 48 17.7 19.4 V G96 – Mt. Lemmon Survey MPS 256626
2008 09 20.37652 01 19 15.99 +07 48 14.5 19.5 V G96 – Mt. Lemmon Survey MPS 256626
2008 09 24.28796 01 16 53.07 +07 24 31.3 20.2   704 – Lincoln Laboratory ETS, New Mexico MPS 256626
2008 09 24.29152 01 16 52.95 +07 24 29.8 19.7 V 691 – Steward Observatory, Kitt Peak-Spacewatch MPS 256626
2008 09 24.30912 01 16 52.23 +07 24 23.2 19.7 V 691 – Steward Observatory, Kitt Peak-Spacewatch MPS 256626
2008 09 24.31187 01 16 52.14 +07 24 21.9 20.2   704 – Lincoln Laboratory ETS, New Mexico MPS 256626
2008 09 24.32385 01 16 51.64 +07 24 17.0 20.1   704 – Lincoln Laboratory ETS, New Mexico MPS 256626
2008 09 24.32671 01 16 51.53 +07 24 16.5 19.7 V 691 – Steward Observatory, Kitt Peak-Spacewatch MPS 256626
2008 09 24.33582 01 16 51.17 +07 24 11.8 20.2   704 – Lincoln Laboratory ETS, New Mexico MPS 256626
2008 09 28.23002 01 14 15.92 +06 59 09.2 19.3   704 – Lincoln Laboratory ETS, New Mexico MPS 257854
2008 09 28.24224 01 14 15.39 +06 59 04.4 19.4   704 – Lincoln Laboratory ETS, New Mexico MPS 257854
2008 09 28.25440 01 14 14.85 +06 58 59.6 19.4   704 – Lincoln Laboratory ETS, New Mexico MPS 257854
2008 09 28.26655 01 14 14.37 +06 58 55.1 19.7   704 – Lincoln Laboratory ETS, New Mexico MPS 257854
2008 09 28.27870 01 14 13.86 +06 58 49.8 19.8   704 – Lincoln Laboratory ETS, New Mexico MPS 257854
2008 09 30.28401 01 12 49.74 +06 45 29.1 19.7   704 – Lincoln Laboratory ETS, New Mexico MPS 257854
2008 09 30.29622 01 12 49.17 +06 45 24.8 19.7   704 – Lincoln Laboratory ETS, New Mexico MPS 257854
2008 09 30.30844 01 12 48.64 +06 45 18.7 19.7   704 – Lincoln Laboratory ETS, New Mexico MPS 257854
2008 09 30.32076 01 12 48.10 +06 45 14.3 19.8   704 – Lincoln Laboratory ETS, New Mexico MPS 257854
